[[{"header":{"parameterUnit":"m.s-1","parameterCategory":2,"la1":30.2991,"la2":30.254,"lo1":-89.0895,"lo2":-89.0444,"dy":0.0017,"dx":0.0017,"nx":28,"ny":28,"refTime":"2024-10-02T09:00:00:Z","depth":"0","parameterNumber":2,"parameterNumberName":"U-component_of_CURRENTS"},"data":[0,0,0,0,0,0,0,0,0,0,0,0,0,0,0,0,0,0,0,0,0,0,0,0,0,0,0,0,0,0,0,0,0,0,0,0,0,0,0,0,0,0,0,0,0,0,0,0,0,0,0,0,0,0,0,0,0,0,0.2417,0.2417,0,0.2391,0.239,0.239,0.2286,0.2284,0.2282,0.228,0.214,0.2138,0.2137,0,0,0,0,0,0,0,0,0,0,0,0,0,0.2435,0.2435,0.2417,0.2417,0.2417,0.2391,0.239,0.2389,0.2287,0.2284,0.2281,0.2279,0.214,0.2138,0.2136,0,0,0,0,0,0,0,0,0,0,0,0,0,0.2418,0.2435,0.2417,0.2364,0.2359,0.2391,0.239,0.2389,0.2287,0.2284,0.2281,0.2278,0.2141,0.2139,0.2136,0.2185,0,0,0.2128,0.2127,0,0,0,0,0,0,0,0,0.2419,0.2417,0.2372,0.2368,0.2362,0.234,0.2345,0.2316,0.2288,0.2312,0.228,0.2276,0.22,0.2193,0.2193,0.2179,0.2173,0.2128,0.2126,0.2125,0.2125,0,0,0,0,0,0,0,0.242,0.2418,0.2404,0.2372,0.2366,0.2361,0.2354,0.234,0.2271,0.231,0.2303,0.2305,0.2196,0.2196,0.2189,0.2171,0.2128,0.2126,0.2124,0.2123,0.2196,0.22,0,0,0,0,0,0,0.2429,0.2419,0.2405,0.2404,0.2386,0.2363,0.2356,0.2349,0.2273,0.226,0.2307,0.23,0.2202,0.2192,0.2184,0.2259,0.2125,0.2123,0.2122,0.2193,0.2197,0.2201,0,0,0,0,0,0,0.2429,0.2427,0.2406,0.2413,0.241,0.2366,0.236,0.235,0.2343,0.2273,0.2256,0.2309,0.2199,0.2187,0.2182,0.2251,0.2122,0.212,0.2189,0.2194,0.2199,0.2395,0,0,0,0,0,0,0.243,0.2428,0.2439,0.2413,0.241,0.244,0.2363,0.2352,0.2351,0.234,0.227,0.2254,0.2196,0.2186,0.2179,0.2245,0.2118,0.2184,0.2191,0.2197,0.2385,0.2407,0.2426,0,0,0,0,0,0.243,0.2462,0.2439,0.2439,0.2422,0.2443,0.2442,0.2398,0.2354,0.2374,0.2323,0.2256,0.2223,0.2187,0.2178,0.2245,0.2181,0.2189,0.2197,0.2375,0.2402,0.2425,0,0,0,0,0,0,0.2502,0.2455,0.2428,0.2451,0.2452,0.2426,0.245,0.2415,0.2394,0.2382,0.2295,0.2278,0.2303,0.2252,0.2215,0.2287,0.2194,0.2201,0.2333,0.2358,0.2378,0.2368,0.2115,0,0,0,0,0,0.252,0.2515,0.2489,0.2516,0.2518,0.2487,0.2492,0.2467,0.2442,0.2429,0.2383,0.2345,0.2336,0.2325,0.2306,0.2345,0.233,0.2384,0.2405,0.2423,0.2411,0.2473,0.2498,0.2227,0.2227,0.2227,0,0,0.2567,0.2536,0.2541,0.253,0.2525,0.2553,0.2482,0.2508,0.2527,0.242,0.2442,0.2415,0.2362,0.2405,0.2413,0.2365,0.2504,0.2433,0.2448,0.2425,0.2484,0.251,0.2533,0.2232,0.2231,0.223,0,0,0.2654,0.2624,0.2647,0.265,0.2646,0.2625,0.2636,0.2623,0.261,0.2637,0.2572,0.2584,0.2562,0.255,0.2535,0.266,0.2611,0.2665,0.2759,0.2823,0.2845,0.2865,0.2929,0.2953,0.2675,0.2676,0.2676,0,0.2718,0.271,0.2671,0.2699,0.2698,0.266,0.2695,0.2705,0.2694,0.2692,0.2664,0.2668,0.2633,0.2675,0.2722,0.2707,0.2732,0.267,0.2851,0.2869,0.2885,0.2946,0.2969,0.2686,0.2685,0.2684,0.2683,0,0.2798,0.2807,0.2833,0.2826,0.2841,0.2867,0.2861,0.2881,0.2858,0.2851,0.289,0.287,0.2856,0.2882,0.2835,0.2943,0.2923,0.2873,0.2788,0.2925,0.298,0.3001,0.2701,0.2698,0.2694,0.2692,0,0,0.2877,0.2882,0.2886,0.2878,0.289,0.2897,0.2958,0.2969,0.2977,0.3017,0.3039,0.3078,0.3058,0.3041,0.3017,0.3081,0.3246,0.3038,0.3037,0.3103,0.3406,0.3374,0.3392,0.3238,0.3242,0.3245,0.3416,0,0.2935,0.2979,0.297,0.3013,0.3019,0.3008,0.3048,0.3068,0.3072,0.3099,0.3121,0.3136,0.3123,0.3123,0.3201,0.3203,0.3302,0.3204,0.326,0.3261,0.3216,0.3415,0.3265,0.3403,0.3436,0.3439,0.3441,0,0.2971,0.2984,0.3028,0.3028,0.3033,0.3063,0.3063,0.3099,0.3149,0.3158,0.3212,0.3212,0.3304,0.3269,0.3412,0.3354,0.3407,0.3432,0.3438,0.3339,0.3266,0.3261,0.3438,0.3275,0.3472,0.3469,0.3467,0,0.2945,0.2998,0.3007,0.3016,0.3046,0.3058,0.307,0.311,0.3121,0.3191,0.3209,0.3313,0.3341,0.3449,0.3513,0.3476,0.3668,0.361,0.3649,0.3647,0.3489,0.3466,0.3503,0.3751,0.375,0.375,0.3749,0,0.2945,0.2949,0.299,0.2993,0.2996,0.3032,0.304,0.3072,0.3125,0.3149,0.3227,0.3274,0.3389,0.3497,0.357,0.3686,0.3727,0.3707,0.3705,0.3559,0.3541,0.336,0.3275,0.3756,0.3755,0.3753,0.3752,0,0.2886,0.2924,0.2925,0.2966,0.2974,0.2968,0.3,0.3013,0.3073,0.3115,0.3143,0.3266,0.3405,0.353,0.3691,0.3735,0.3735,0.3883,0.3709,0.3684,0.3536,0.3467,0.3419,0.3325,0.396,0.396,0.3961,0,0.2846,0.2845,0.2878,0.2877,0.2888,0.2895,0.2903,0.297,0.299,0.3106,0.3127,0.3278,0.3371,0.3609,0.373,0.3895,0.3745,0.3836,0.3733,0.3551,0.3474,0.3339,0.3252,0.3627,0.3624,0.3622,0.3621,0,0.2764,0.2777,0.2787,0.2789,0.2796,0.2799,0.2824,0.2837,0.2925,0.2978,0.3074,0.3165,0.3393,0.3489,0.3698,0.3775,0.3604,0.38,0.3653,0.3269,0.3081,0.2978,0.3493,0.3603,0.3605,0.3606,0.3607,0.3608,0.269,0.2671,0.269,0.2686,0.2695,0.2694,0.2668,0.2728,0.2763,0.2836,0.2982,0.3077,0.3243,0.3509,0.3569,0.3506,0.3515,0.3396,0.3353,0.3253,0.3076,0.3566,0.3636,0.3638,0.3639,0.3641,0.3642,0,0.259,0.259,0.2582,0.2577,0.2549,0.2589,0.26,0.2572,0.259,0.2733,0.282,0.2934,0.3021,0.3126,0.3148,0.3052,0.2953,0.2952,0.2697,0.2655,0.313,0.3024,0.291,0.291,0.2911,0.2911,0.2911,0.2911,0.2538,0.25,0.2504,0.2439,0.2426,0.2354,0.234,0.2339,0.2402,0.2451,0.2505,0.2618,0.2703,0.2743,0.2623,0.2582,0.2355,0.2291,0.2287,0.2562,0.2597,0.2631,0.251,0.2291,0.2291,0.1699,0.1694,0.169]},{"header":{"parameterUnit":"m.s-1","parameterCategory":2,"la1":30.2991,"la2":30.254,"lo1":-89.0895,"lo2":-89.0444,"dy":0.0017,"dx":0.0017,"nx":28,"ny":28,"refTime":"2024-10-02T09:00:00:Z","depth":"0","parameterNumber":3,"parameterNumberName":"V-component_of_CURRENTS"},"data":[0,0,0,0,0,0,0,0,0,0,0,0,0,0,0,0,0,0,0,0,0,0,0,0,0,0,0,0,0,0,0,0,0,0,0,0,0,0,0,0,0,0,0,0,0,0,0,0,0,0,0,0,0,0,0,0,0,0,-0.0258,-0.0258,0,-0.0286,-0.0286,-0.0286,-0.0259,-0.0258,-0.0257,-0.0256,-0.0247,-0.0248,-0.0248,0,0,0,0,0,0,0,0,0,0,0,0,0,-0.0238,-0.0238,-0.0257,-0.0258,-0.0259,-0.0286,-0.0286,-0.0286,-0.0259,-0.0258,-0.0257,-0.0255,-0.0247,-0.0248,-0.0248,0,0,0,0,0,0,0,0,0,0,0,0,0,-0.0253,-0.0238,-0.0257,-0.0249,-0.0249,-0.0286,-0.0286,-0.0287,-0.0259,-0.0258,-0.0256,-0.0255,-0.0247,-0.0248,-0.0249,-0.0284,0,0,-0.0252,-0.0252,0,0,0,0,0,0,0,0,-0.0252,-0.0254,-0.025,-0.025,-0.0249,-0.0269,-0.0276,-0.0284,-0.0259,-0.0254,-0.0256,-0.0254,-0.0253,-0.0253,-0.026,-0.0283,-0.0283,-0.0252,-0.0252,-0.0253,-0.0253,0,0,0,0,0,0,0,-0.0251,-0.0253,-0.0267,-0.0251,-0.025,-0.0264,-0.0264,-0.0278,-0.0259,-0.0254,-0.0252,-0.0259,-0.0252,-0.0259,-0.026,-0.0283,-0.0252,-0.0252,-0.0253,-0.0253,-0.0268,-0.0268,0,0,0,0,0,0,-0.0249,-0.0252,-0.0266,-0.0268,-0.0249,-0.0266,-0.0266,-0.0263,-0.026,-0.0259,-0.026,-0.0257,-0.0258,-0.0259,-0.0259,-0.0242,-0.0253,-0.0254,-0.0254,-0.0268,-0.0268,-0.0268,0,0,0,0,0,0,-0.0249,-0.025,-0.0265,-0.0262,-0.0265,-0.0267,-0.0265,-0.0264,-0.0269,-0.0265,-0.0262,-0.0265,-0.0257,-0.0258,-0.0255,-0.0243,-0.0254,-0.0255,-0.0268,-0.0268,-0.0268,-0.0244,0,0,0,0,0,0,-0.0248,-0.0249,-0.0254,-0.0262,-0.0265,-0.0298,-0.0266,-0.0266,-0.0276,-0.0273,-0.0269,-0.0266,-0.0256,-0.0253,-0.0256,-0.0245,-0.0256,-0.0269,-0.0268,-0.0268,-0.0245,-0.0243,-0.0241,0,0,0,0,0,-0.0247,-0.026,-0.0254,-0.0257,-0.0269,-0.0299,-0.0303,-0.0299,-0.0278,-0.0294,-0.0268,-0.0266,-0.0252,-0.0254,-0.0257,-0.0246,-0.0269,-0.0268,-0.0268,-0.0246,-0.0243,-0.0241,0,0,0,0,0,0,-0.0283,-0.0259,-0.0252,-0.0266,-0.0286,-0.0295,-0.0313,-0.0305,-0.0301,-0.0291,-0.0271,-0.0268,-0.0258,-0.0263,-0.0266,-0.0249,-0.0258,-0.0258,-0.0241,-0.0238,-0.0236,-0.0188,-0.0257,0,0,0,0,0,-0.0288,-0.0274,-0.028,-0.0297,-0.0304,-0.0308,-0.032,-0.0319,-0.0315,-0.0312,-0.0302,-0.0285,-0.0262,-0.0258,-0.0254,-0.0257,-0.0249,-0.0249,-0.0247,-0.0246,-0.0208,-0.0195,-0.0188,-0.0266,-0.0266,-0.0266,0,0,-0.0313,-0.0296,-0.0294,-0.0301,-0.0312,-0.0308,-0.0312,-0.0337,-0.0312,-0.0314,-0.0284,-0.0285,-0.0262,-0.0249,-0.0245,-0.0249,-0.0227,-0.0245,-0.0243,-0.0206,-0.0194,-0.0186,-0.0179,-0.0266,-0.0266,-0.0266,0,0,-0.0342,-0.0338,-0.0328,-0.033,-0.0341,-0.0334,-0.034,-0.0349,-0.0333,-0.0328,-0.0296,-0.0279,-0.0282,-0.0238,-0.0217,-0.0206,-0.0218,-0.0225,-0.0174,-0.0163,-0.0155,-0.0149,-0.0161,-0.0155,-0.0223,-0.0223,-0.0222,0,-0.0376,-0.0342,-0.0343,-0.0332,-0.0317,-0.0336,-0.0321,-0.0316,-0.0319,-0.0285,-0.0317,-0.0257,-0.0259,-0.0177,-0.0172,-0.0196,-0.0207,-0.0185,-0.0158,-0.0151,-0.0145,-0.0158,-0.0152,-0.0221,-0.0221,-0.0222,-0.0222,0,-0.0373,-0.0353,-0.0357,-0.0314,-0.0314,-0.0316,-0.0296,-0.0286,-0.0275,-0.0254,-0.0205,-0.0208,-0.0159,-0.0172,-0.0169,-0.0112,-0.0142,-0.016,-0.016,-0.0135,-0.0152,-0.0146,-0.022,-0.022,-0.022,-0.0221,0,0,-0.0412,-0.0358,-0.0353,-0.0314,-0.029,-0.0285,-0.0241,-0.019,-0.0132,-0.0151,-0.0073,-0.0054,-0.006,-0.0035,-0.0039,-0.0032,-0.0023,-0.0079,-0.0079,-0.0083,-0.0021,-0.0026,-0.0021,-0.0048,-0.0046,-0.0044,-0.0062,0,-0.0401,-0.035,-0.0321,-0.0267,-0.0235,-0.0209,-0.0156,-0.0114,-0.0087,-0.0031,-0.0009,0.0035,-0.0004,0.0007,0.0015,-0.0003,-0.0002,-0.0017,-0.0048,-0.0049,-0.005,-0.0012,0.0014,0.0003,-0.0056,-0.0055,-0.0055,0,-0.0378,-0.0335,-0.0277,-0.0191,-0.0175,-0.0145,-0.0038,0.0,0.0078,0.0096,0.0145,0.0146,0.0191,0.0123,0.0127,0.0111,0.0059,0.0025,0.0023,0.0028,-0.0041,-0.0026,0.0015,-0.011,-0.0046,-0.0047,-0.0047,0,-0.0355,-0.0292,-0.0227,-0.0203,-0.0127,-0.0079,-0.0035,0.0044,0.0104,0.0177,0.0212,0.0255,0.0269,0.0234,0.017,0.0139,0.015,0.0095,0.0047,0.0043,0.0072,0.0069,0.0007,0.0098,0.0098,0.0098,0.0098,0,-0.0318,-0.0268,-0.0211,-0.0173,-0.0084,-0.0049,0.005,0.01,0.0182,0.0274,0.0275,0.0348,0.0291,0.029,0.0215,0.0165,0.0185,0.0085,0.0057,0.0075,0.0073,-0.003,-0.0099,0.0097,0.0098,0.0098,0.0098,0,-0.0296,-0.026,-0.0183,-0.01,-0.007,-0.0009,0.0091,0.0167,0.0223,0.0341,0.0364,0.0415,0.0424,0.0365,0.0309,0.0224,0.0114,0.014,0.0156,0.0132,-0.004,-0.0108,-0.0152,-0.0199,0.0084,0.0085,0.0085,0,-0.0276,-0.0236,-0.014,-0.0086,-0.0046,0.0041,0.0112,0.0184,0.027,0.0401,0.0471,0.0506,0.0587,0.0504,0.0371,0.0263,0.0139,0.0163,0.0123,-0.0015,-0.0113,-0.0164,-0.0205,0.0147,0.0147,0.0148,0.0148,0,-0.0234,-0.0205,-0.0138,-0.0037,0.0042,0.0138,0.024,0.0313,0.0423,0.0532,0.0675,0.0747,0.0686,0.0624,0.0453,0.0353,0.0089,0.0167,0.0033,-0.0041,-0.0105,-0.0176,0.0094,0.0152,0.0151,0.0151,0.0151,0.0151,-0.0202,-0.0154,-0.007,0.0029,0.0121,0.0244,0.0343,0.0468,0.0625,0.084,0.0857,0.1035,0.0863,0.0666,0.0472,0.0127,0.0122,0.0016,-0.0051,-0.0086,-0.0133,0.0141,0.016,0.016,0.0159,0.0159,0.0159,0,-0.0154,-0.0098,-0.0006,0.0124,0.0237,0.0275,0.0445,0.0573,0.0784,0.1007,0.1165,0.1238,0.1006,0.0708,0.0237,-0.0039,-0.0145,-0.0192,-0.0264,-0.0292,-0.0036,-0.0035,-0.0068,-0.0068,-0.0068,-0.0068,-0.0068,-0.0067,-0.0123,-0.0033,0.0014,0.0203,0.03,0.0474,0.0584,0.0783,0.0978,0.1298,0.1479,0.1578,0.1342,0.0471,-0.0139,-0.0273,-0.0471,-0.0497,-0.0605,-0.0453,-0.0439,-0.0426,-0.0443,-0.0561,-0.0561,-0.082,-0.0823,-0.0825]}],[{"header":{"parameterUnit":"m.s-1","parameterCategory":2,"la1":30.2991,"la2":30.254,"lo1":-89.0895,"lo2":-89.0444,"dy":0.0017,"dx":0.0017,"nx":28,"ny":28,"refTime":"2024-10-02T09:00:00:Z","depth":"2","parameterNumber":2,"parameterNumberName":"U-component_of_CURRENTS"},"data":[0,0,0,0,0,0,0,0,0,0,0,0,0,0,0,0,0,0,0,0,0,0,0,0,0,0,0,0,0,0,0,0,0,0,0,0,0,0,0,0,0,0,0,0,0,0,0,0,0,0,0,0,0,0,0,0,0,0,0.1763,0.1764,0,0.1808,0.1809,0.1809,0.1819,0.1819,0.1819,0.1818,0.1831,0.1832,0.1833,0,0,0,0,0,0,0,0,0,0,0,0,0,0.1752,0.1752,0.1763,0.1764,0.1764,0.1808,0.1809,0.1809,0.1819,0.1819,0.1818,0.1818,0.1831,0.1832,0.1833,0,0,0,0,0,0,0,0,0,0,0,0,0,0.1773,0.1752,0.1763,0.1774,0.1776,0.1808,0.1809,0.1809,0.1819,0.1819,0.1818,0.1818,0.1831,0.1832,0.1833,0.1849,0,0,0.1836,0.1836,0,0,0,0,0,0,0,0,0.1772,0.1773,0.1772,0.1774,0.1775,0.1807,0.181,0.1821,0.1819,0.1803,0.1818,0.1818,0.1821,0.1822,0.1833,0.185,0.185,0.1836,0.1836,0.1837,0.1837,0,0,0,0,0,0,0,0.177,0.1772,0.1781,0.1773,0.1775,0.18,0.1802,0.1812,0.1814,0.1804,0.1805,0.181,0.1821,0.1832,0.1833,0.185,0.1836,0.1837,0.1837,0.1838,0.1965,0.1967,0,0,0,0,0,0,0.1761,0.177,0.178,0.1782,0.1772,0.18,0.1802,0.1798,0.1814,0.1816,0.181,0.181,0.183,0.1832,0.1833,0.1974,0.1837,0.1838,0.1838,0.1962,0.1965,0.1968,0,0,0,0,0,0,0.1761,0.1761,0.1778,0.1778,0.1782,0.18,0.1796,0.1799,0.1824,0.1819,0.1821,0.1834,0.183,0.1832,0.1864,0.1969,0.1838,0.1839,0.1959,0.1963,0.1967,0.2177,0,0,0,0,0,0,0.176,0.176,0.1775,0.1777,0.1781,0.182,0.1796,0.18,0.1827,0.1828,0.1839,0.1839,0.183,0.1862,0.1865,0.1968,0.184,0.1955,0.1961,0.1965,0.2166,0.2188,0.2206,0,0,0,0,0,0.1759,0.1787,0.1775,0.1777,0.1793,0.1821,0.1828,0.1839,0.1829,0.1856,0.1859,0.184,0.1898,0.1865,0.1867,0.1974,0.1953,0.1959,0.1965,0.2158,0.2184,0.2205,0,0,0,0,0,0,0.179,0.179,0.1777,0.1802,0.1816,0.1823,0.1848,0.1852,0.1876,0.1875,0.1863,0.1865,0.1929,0.191,0.1874,0.2021,0.1928,0.1934,0.2073,0.2097,0.2117,0.2161,0.1841,0,0,0,0,0,0.18,0.1827,0.1817,0.1846,0.184,0.1844,0.1862,0.187,0.1882,0.1893,0.1905,0.192,0.1956,0.199,0.1994,0.2077,0.2062,0.2147,0.2167,0.2184,0.222,0.2287,0.2318,0.1989,0.1989,0.1989,0,0,0.1811,0.1827,0.1835,0.1856,0.1856,0.1895,0.1854,0.1886,0.1946,0.189,0.1972,0.1973,0.1981,0.2073,0.2105,0.2079,0.2264,0.2192,0.2208,0.2234,0.2297,0.233,0.2358,0.1993,0.1992,0.1992,0,0,0.187,0.1859,0.1898,0.1915,0.1936,0.1948,0.196,0.1976,0.2002,0.2069,0.2055,0.2126,0.2159,0.2225,0.2252,0.2382,0.2343,0.238,0.2556,0.2622,0.265,0.2675,0.268,0.2704,0.2421,0.2421,0.2422,0,0.1891,0.1933,0.1918,0.1965,0.1983,0.1976,0.2017,0.2062,0.2104,0.2154,0.2115,0.2238,0.2249,0.2404,0.2471,0.2438,0.2435,0.2472,0.2652,0.2676,0.2699,0.2697,0.2721,0.2432,0.2431,0.243,0.2429,0,0.1961,0.201,0.2032,0.2089,0.2111,0.215,0.2177,0.2234,0.2259,0.2323,0.2443,0.2466,0.2551,0.2586,0.2583,0.2771,0.2701,0.2647,0.2601,0.2745,0.2733,0.2754,0.2448,0.2444,0.2441,0.2438,0,0,0.1973,0.2063,0.2072,0.2133,0.2171,0.2214,0.2297,0.2395,0.2495,0.2565,0.2688,0.2814,0.2838,0.2871,0.2882,0.2983,0.3146,0.2917,0.2915,0.2937,0.3258,0.3016,0.3014,0.3128,0.3134,0.3138,0.318,0,0.2032,0.2152,0.2165,0.2296,0.2353,0.2365,0.2462,0.2561,0.2628,0.2756,0.2839,0.295,0.2943,0.2994,0.3107,0.3115,0.3214,0.3137,0.3101,0.3099,0.2882,0.3036,0.2832,0.2837,0.32,0.3203,0.3206,0,0.209,0.2176,0.2286,0.243,0.2447,0.2535,0.2665,0.2746,0.2909,0.2956,0.3086,0.312,0.3298,0.3231,0.3389,0.3336,0.3341,0.3343,0.3342,0.3065,0.2898,0.2753,0.286,0.3239,0.3237,0.3234,0.3232,0,0.2127,0.2268,0.2371,0.2409,0.2556,0.2627,0.2702,0.284,0.2897,0.3086,0.3128,0.3324,0.3368,0.3461,0.3455,0.3449,0.3557,0.3523,0.3312,0.3291,0.3084,0.3035,0.365,0.365,0.365,0.365,0.365,0,0.2186,0.2296,0.2423,0.2491,0.2632,0.2707,0.284,0.2936,0.3047,0.3126,0.3244,0.3293,0.3431,0.3473,0.3506,0.3445,0.359,0.3378,0.3313,0.3141,0.3099,0.3413,0.3385,0.3651,0.3651,0.3651,0.365,0,0.2236,0.2306,0.2456,0.2614,0.2657,0.2764,0.2853,0.2936,0.3052,0.3126,0.3174,0.3295,0.334,0.3398,0.3498,0.344,0.3446,0.3378,0.3127,0.3032,0.3135,0.3118,0.3207,0.3199,0.3193,0.3187,0.3183,0,0.2274,0.2359,0.251,0.2548,0.2626,0.2752,0.2797,0.2922,0.2963,0.3093,0.311,0.3188,0.3161,0.3176,0.3154,0.3133,0.3258,0.2895,0.2862,0.3175,0.3104,0.3097,0.3088,0.2676,0.2668,0.2661,0.2656,0,0.2355,0.2408,0.2489,0.2549,0.2613,0.2668,0.2749,0.2777,0.289,0.2924,0.2937,0.2928,0.2908,0.2774,0.2717,0.2696,0.289,0.2747,0.32,0.2777,0.2667,0.2598,0.261,0.2595,0.2602,0.2606,0.2609,0.2612,0.2394,0.2424,0.2482,0.2532,0.2567,0.2574,0.258,0.2625,0.2642,0.2608,0.2668,0.2538,0.2548,0.2326,0.2264,0.2253,0.2449,0.2388,0.2415,0.2448,0.2336,0.2216,0.2038,0.2041,0.2043,0.2045,0.2047,0,0.2405,0.2419,0.2446,0.2462,0.2433,0.25,0.2515,0.2447,0.2404,0.2332,0.2239,0.1973,0.1854,0.1899,0.1785,0.1758,0.1821,0.1702,0.1806,0.1865,0.1918,0.1785,0.1339,0.1336,0.1334,0.1332,0,0,0.2427,0.2413,0.2388,0.2319,0.2322,0.226,0.2252,0.2124,0.205,0.1826,0.1698,0.1666,0.1785,0.1513,0.1497,0.1403,0.1624,0.1348,0.1918,0.2096,0.2146,0.2311,0.217,0,0,0,0,0]},{"header":{"parameterUnit":"m.s-1","parameterCategory":2,"la1":30.2991,"la2":30.254,"lo1":-89.0895,"lo2":-89.0444,"dy":0.0017,"dx":0.0017,"nx":28,"ny":28,"refTime":"2024-10-02T09:00:00:Z","depth":"2","parameterNumber":3,"parameterNumberName":"V-component_of_CURRENTS"},"data":[0,0,0,0,0,0,0,0,0,0,0,0,0,0,0,0,0,0,0,0,0,0,0,0,0,0,0,0,0,0,0,0,0,0,0,0,0,0,0,0,0,0,0,0,0,0,0,0,0,0,0,0,0,0,0,0,0,0,0.0185,0.0185,0,0.013,0.013,0.0129,0.0079,0.0078,0.0078,0.0077,0.0035,0.0034,0.0034,0,0,0,0,0,0,0,0,0,0,0,0,0,0.0185,0.0186,0.0185,0.0185,0.0184,0.013,0.013,0.0129,0.0079,0.0078,0.0078,0.0077,0.0035,0.0034,0.0033,0,0,0,0,0,0,0,0,0,0,0,0,0,0.0163,0.0186,0.0185,0.0153,0.015,0.0131,0.013,0.0129,0.0079,0.0078,0.0078,0.0077,0.0035,0.0034,0.0033,0.0043,0,0,0.003,0.003,0,0,0,0,0,0,0,0,0.0164,0.0163,0.0159,0.0156,0.0152,0.0111,0.0114,0.0101,0.0079,0.0105,0.0077,0.0076,0.0063,0.006,0.0049,0.0041,0.0039,0.003,0.003,0.0029,0.0029,0,0,0,0,0,0,0,0.0166,0.0164,0.0162,0.0158,0.0154,0.0121,0.0117,0.0111,0.0088,0.0103,0.0099,0.0095,0.0061,0.005,0.0048,0.0039,0.003,0.0029,0.0029,0.0028,0.0007,0.0007,0,0,0,0,0,0,0.0179,0.0166,0.0164,0.0161,0.0157,0.0122,0.0118,0.0124,0.0088,0.0082,0.0096,0.0093,0.0052,0.0049,0.0046,0.0045,0.0029,0.0028,0.0028,0.0007,0.0007,0.0007,0,0,0,0,0,0,0.0179,0.018,0.0166,0.0162,0.0158,0.0123,0.0131,0.0124,0.0111,0.0083,0.0076,0.009,0.0052,0.0048,0.0038,0.0043,0.0028,0.0027,0.0007,0.0007,0.0007,0.0048,0,0,0,0,0,0,0.018,0.018,0.0186,0.0164,0.0159,0.0166,0.0131,0.0123,0.0111,0.0106,0.0077,0.0071,0.0051,0.004,0.0038,0.0041,0.0026,0.0007,0.0007,0.0007,0.0047,0.005,0.0052,0,0,0,0,0,0.018,0.0199,0.0187,0.0186,0.017,0.0166,0.0162,0.0132,0.0111,0.0116,0.0087,0.0072,0.0038,0.004,0.0037,0.004,0.0007,0.0007,0.0007,0.0046,0.0049,0.0052,0,0,0,0,0,0,0.021,0.0195,0.0181,0.0196,0.0185,0.0159,0.0162,0.0137,0.0117,0.0114,0.0078,0.0072,0.0063,0.0047,0.005,0.0032,0.0018,0.0017,0.0049,0.0052,0.0054,0.0099,0.0025,0,0,0,0,0,0.0219,0.0218,0.0207,0.0215,0.0219,0.019,0.0182,0.0165,0.0145,0.0135,0.0109,0.0082,0.0061,0.0054,0.0037,0.0035,0.0036,0.0032,0.0035,0.0037,0.007,0.0064,0.007,0.0007,0.0007,0.0007,0,0,0.0233,0.0221,0.0223,0.0219,0.021,0.0228,0.0184,0.0186,0.0196,0.0136,0.0139,0.0095,0.0063,0.0053,0.0048,0.0041,0.0052,0.0037,0.0039,0.0072,0.0065,0.0071,0.0077,0.0007,0.0007,0.0007,0,0,0.0272,0.0257,0.0281,0.0275,0.0267,0.0253,0.0257,0.0237,0.0229,0.0221,0.0175,0.0139,0.0112,0.0085,0.0069,0.008,0.0066,0.0063,0.0115,0.0108,0.0114,0.0119,0.012,0.0125,0.0064,0.0064,0.0065,0,0.03,0.0318,0.0287,0.031,0.0316,0.0272,0.031,0.0297,0.0269,0.0277,0.0234,0.0179,0.0133,0.0129,0.0115,0.0089,0.0087,0.0105,0.0114,0.0119,0.0124,0.0124,0.0129,0.0066,0.0066,0.0066,0.0066,0,0.0357,0.0371,0.0388,0.04,0.0402,0.0422,0.041,0.0407,0.0378,0.0363,0.0348,0.0271,0.0237,0.0202,0.0157,0.0162,0.0149,0.0117,0.0111,0.0133,0.0131,0.0135,0.0069,0.0069,0.0068,0.0068,0,0,0.043,0.0434,0.0437,0.046,0.0452,0.0467,0.0489,0.051,0.0542,0.0479,0.051,0.042,0.0363,0.034,0.0265,0.0247,0.0244,0.0196,0.0195,0.021,0.024,0.0151,0.0147,0.0211,0.0212,0.0213,0.0223,0,0.0494,0.0551,0.0532,0.0588,0.0626,0.0595,0.0624,0.0627,0.0618,0.0633,0.0552,0.054,0.0421,0.0391,0.0349,0.0283,0.026,0.0245,0.0209,0.0209,0.0136,0.0151,0.0147,0.0149,0.0227,0.0228,0.0229,0,0.0559,0.0588,0.066,0.0693,0.0711,0.0736,0.0781,0.0801,0.0808,0.0796,0.0757,0.0696,0.0639,0.0534,0.044,0.0436,0.0344,0.0287,0.0285,0.02,0.0128,0.014,0.0154,0.0236,0.0236,0.0235,0.0235,0,0.0621,0.0674,0.0735,0.0744,0.0781,0.0815,0.0833,0.0857,0.0891,0.0903,0.0914,0.0845,0.08,0.0696,0.0524,0.0493,0.0439,0.038,0.0222,0.0215,0.0207,0.0196,0.0328,0.0328,0.0328,0.0328,0.0328,0,0.0686,0.0729,0.0772,0.0803,0.0888,0.0888,0.0976,0.0984,0.1015,0.1067,0.099,0.1002,0.0836,0.0761,0.0607,0.0429,0.0493,0.0252,0.0215,0.0216,0.0207,0.0279,0.0273,0.0329,0.0329,0.0329,0.0328,0,0.0733,0.0753,0.0833,0.0897,0.0918,0.098,0.1044,0.1108,0.1119,0.1182,0.1181,0.1131,0.1018,0.0846,0.0692,0.0527,0.0382,0.0298,0.0309,0.027,0.0148,0.0144,0.0146,0.0143,0.0141,0.0139,0.0137,0,0.0759,0.0805,0.0901,0.0951,0.0982,0.1062,0.1121,0.1155,0.1222,0.1256,0.1296,0.121,0.1131,0.0878,0.0608,0.0351,0.0331,0.0185,0.0102,0.0167,0.0131,0.0131,0.0131,0.0116,0.0114,0.0113,0.0111,0,0.0814,0.0849,0.0913,0.1018,0.1095,0.1182,0.1266,0.1336,0.138,0.1427,0.1468,0.1408,0.1119,0.0845,0.0476,0.0304,0.0223,0.0141,0.0242,0.0138,0.0132,0.0098,0.01,0.0098,0.01,0.0101,0.0101,0.0102,0.0851,0.0903,0.0984,0.1086,0.1172,0.1284,0.1367,0.1458,0.1559,0.1584,0.1548,0.1414,0.1127,0.0591,0.0342,0.008,0.0077,-0.0019,-0.0011,-0.0002,-0.0032,-0.0045,-0.0115,-0.0115,-0.0115,-0.0115,-0.0115,0,0.0881,0.0932,0.1036,0.1156,0.1261,0.1289,0.1444,0.1534,0.1657,0.1596,0.1559,0.1215,0.089,0.0578,0.0157,-0.009,-0.0075,-0.015,-0.007,-0.0057,-0.0046,-0.0074,-0.0171,-0.0171,-0.0171,-0.0172,0,0,0.0891,0.0974,0.1033,0.1201,0.128,0.1411,0.15,0.1621,0.1637,0.1573,0.1422,0.1226,0.0882,0.0572,0.0263,0.0046,0.0053,0.0004,0.0065,0.0207,0.0222,0.0036,0.0005,0,0,0,0,0]}],[{"header":{"parameterUnit":"m.s-1","parameterCategory":2,"la1":30.2991,"la2":30.254,"lo1":-89.0895,"lo2":-89.0444,"dy":0.0017,"dx":0.0017,"nx":28,"ny":28,"refTime":"2024-10-02T09:00:00:Z","depth":"4","parameterNumber":2,"parameterNumberName":"U-component_of_CURRENTS"},"data":[0,0,0,0,0,0,0,0,0,0,0,0,0,0,0,0,0,0,0,0,0,0,0,0,0,0,0,0,0,0,0,0,0,0,0,0,0,0,0,0,0,0,0,0,0,0,0,0,0,0,0,0,0,0,0,0,0,0,0.0906,0.0906,0,0.0956,0.0957,0.0957,0.1016,0.1017,0.1018,0.1019,0.1061,0.1061,0.1061,0,0,0,0,0,0,0,0,0,0,0,0,0,0.087,0.087,0.0906,0.0906,0.0907,0.0956,0.0957,0.0958,0.1016,0.1017,0.1018,0.1019,0.106,0.1061,0.1061,0,0,0,0,0,0,0,0,0,0,0,0,0,0.09,0.087,0.0906,0.0941,0.0945,0.0956,0.0957,0.0958,0.1016,0.1017,0.1019,0.102,0.106,0.1061,0.1061,0.104,0,0,0.1063,0.1063,0,0,0,0,0,0,0,0,0.0898,0.0901,0.0936,0.0939,0.0943,0.098,0.0959,0.0985,0.1016,0.099,0.1019,0.102,0.1031,0.1034,0.1043,0.1042,0.1044,0.1063,0.1063,0.1064,0.1064,0,0,0,0,0,0,0,0.0896,0.09,0.0927,0.0936,0.0941,0.0958,0.0964,0.0965,0.1004,0.0992,0.0997,0.1,0.1034,0.1042,0.1044,0.1045,0.1063,0.1064,0.1064,0.1064,0.1129,0.1131,0,0,0,0,0,0,0.0886,0.0898,0.0925,0.0928,0.0922,0.0957,0.0964,0.0968,0.1004,0.1011,0.0999,0.1003,0.1041,0.1043,0.1046,0.1088,0.1064,0.1064,0.1064,0.1128,0.113,0.1131,0,0,0,0,0,0,0.0885,0.0888,0.0923,0.0913,0.0919,0.0957,0.0961,0.0968,0.0995,0.1009,0.1016,0.1021,0.1042,0.1045,0.1087,0.1088,0.1064,0.1065,0.1126,0.1128,0.113,0.1131,0,0,0,0,0,0,0.0884,0.0887,0.0897,0.0912,0.0919,0.0941,0.096,0.0968,0.0994,0.1,0.1029,0.1033,0.1043,0.1086,0.1087,0.1088,0.1065,0.1124,0.1127,0.113,0.1129,0.1133,0.1136,0,0,0,0,0,0.0882,0.0888,0.0897,0.0901,0.0927,0.0941,0.0947,0.0978,0.0994,0.1007,0.1046,0.1034,0.1103,0.1088,0.1089,0.109,0.1123,0.1126,0.113,0.1128,0.1132,0.1136,0,0,0,0,0,0,0.0875,0.0895,0.0905,0.0916,0.0932,0.0951,0.0971,0.0983,0.1021,0.1038,0.1052,0.1059,0.1107,0.1099,0.1081,0.1121,0.111,0.1114,0.1109,0.1113,0.1116,0.1115,0.1066,0,0,0,0,0,0.0876,0.0888,0.0904,0.0913,0.0926,0.0949,0.0962,0.0981,0.101,0.103,0.1052,0.1081,0.1115,0.1116,0.1152,0.1153,0.1149,0.1158,0.1161,0.1164,0.1166,0.118,0.1184,0.1142,0.1142,0.1142,0,0,0.087,0.0887,0.089,0.0913,0.0934,0.0946,0.0962,0.0988,0.1006,0.1025,0.1071,0.1107,0.1129,0.116,0.1174,0.1149,0.1171,0.1168,0.117,0.1171,0.1183,0.1187,0.119,0.1144,0.1143,0.1143,0,0,0.0863,0.0887,0.0895,0.0915,0.0947,0.0957,0.0965,0.0996,0.1028,0.1064,0.11,0.1139,0.1168,0.1188,0.1198,0.1235,0.1211,0.1241,0.1225,0.1238,0.1241,0.1243,0.1224,0.1224,0.1215,0.1215,0.1215,0,0.0851,0.0872,0.0899,0.0918,0.0935,0.0961,0.0973,0.1001,0.1043,0.1072,0.1086,0.117,0.1181,0.1218,0.1232,0.124,0.1235,0.1202,0.124,0.1242,0.1245,0.1224,0.1225,0.1215,0.1215,0.1215,0.1215,0,0.0858,0.0876,0.0887,0.0916,0.0937,0.0955,0.099,0.1026,0.106,0.1084,0.1157,0.1192,0.1234,0.1239,0.1241,0.1266,0.1253,0.1262,0.1221,0.1249,0.1226,0.1226,0.1216,0.1216,0.1215,0.1215,0,0,0.0816,0.0875,0.088,0.09,0.0943,0.0958,0.1,0.104,0.1081,0.1125,0.118,0.1223,0.1248,0.1264,0.1277,0.1269,0.1269,0.126,0.126,0.1225,0.1273,0.1241,0.1238,0.1282,0.1283,0.1284,0.1242,0,0.0809,0.0831,0.0874,0.0899,0.0911,0.0967,0.0998,0.1045,0.1101,0.1163,0.1206,0.1279,0.1254,0.1296,0.1278,0.1297,0.1275,0.1278,0.1266,0.1265,0.1221,0.124,0.1286,0.1242,0.1242,0.1242,0.1243,0,0.0801,0.0818,0.0834,0.0894,0.091,0.094,0.1018,0.1057,0.1143,0.1197,0.1259,0.1315,0.1338,0.133,0.1314,0.1317,0.1291,0.1283,0.1281,0.1253,0.1235,0.1217,0.1244,0.1244,0.1244,0.1244,0.1243,0,0.0749,0.0797,0.0809,0.0828,0.0888,0.0936,0.0987,0.1069,0.1131,0.1248,0.1303,0.1346,0.1396,0.1369,0.1357,0.1338,0.1341,0.1313,0.1251,0.1247,0.1285,0.1283,0.13,0.13,0.1301,0.1301,0.1301,0,0.0721,0.0736,0.0795,0.0808,0.0845,0.0913,0.0987,0.1058,0.1173,0.1235,0.1322,0.1376,0.1414,0.1429,0.1378,0.1319,0.1353,0.1252,0.1242,0.1284,0.1283,0.1283,0.1282,0.1299,0.1299,0.13,0.13,0,0.0664,0.0694,0.0719,0.0794,0.0822,0.086,0.0998,0.1051,0.1165,0.126,0.1312,0.1416,0.143,0.1447,0.1432,0.1355,0.1311,0.1286,0.133,0.1323,0.1187,0.1187,0.1175,0.1174,0.1173,0.1172,0.1171,0,0.063,0.0631,0.0705,0.0726,0.0773,0.0846,0.089,0.103,0.1099,0.1257,0.1287,0.139,0.1431,0.1364,0.1384,0.1317,0.1298,0.1259,0.1211,0.1187,0.1178,0.1179,0.118,0.1169,0.1169,0.1169,0.1168,0,0.0568,0.0603,0.0633,0.0671,0.0724,0.0777,0.0874,0.0924,0.107,0.1179,0.1253,0.1295,0.132,0.1318,0.132,0.1256,0.1275,0.1246,0.1246,0.12,0.1179,0.1172,0.1175,0.1164,0.1165,0.1165,0.1166,0,0.0526,0.0539,0.0579,0.0614,0.0661,0.07,0.0767,0.085,0.0933,0.1123,0.1135,0.1219,0.1312,0.1286,0.1263,0.1241,0.1186,0.1115,0.1121,0.1125,0.1133,0.1101,0.1053,0,0,0,0,0,0.048,0.0494,0.052,0.0551,0.0595,0.0627,0.0737,0.081,0.0949,0.0974,0.1069,0.1094,0.1121,0.116,0.1117,0.1204,0.1172,0.1147,0.1089,0.1143,0.1148,0.1164,0,0,0,0,0,0,0.0455,0.0472,0.0493,0.0476,0.0491,0.0532,0.0602,0.0703,0.0735,0.0883,0.09,0.1007,0.1038,0.1121,0.1085,0.1095,0.1032,0.1205,0.1202,0.1141,0.1145,0.1148,0.1167,0,0,0,0,0]},{"header":{"parameterUnit":"m.s-1","parameterCategory":2,"la1":30.2991,"la2":30.254,"lo1":-89.0895,"lo2":-89.0444,"dy":0.0017,"dx":0.0017,"nx":28,"ny":28,"refTime":"2024-10-02T09:00:00:Z","depth":"4","parameterNumber":3,"parameterNumberName":"V-component_of_CURRENTS"},"data":[0,0,0,0,0,0,0,0,0,0,0,0,0,0,0,0,0,0,0,0,0,0,0,0,0,0,0,0,0,0,0,0,0,0,0,0,0,0,0,0,0,0,0,0,0,0,0,0,0,0,0,0,0,0,0,0,0,0,0.0212,0.0212,0,0.019,0.019,0.019,0.0158,0.0157,0.0156,0.0156,0.0156,0.0156,0.0157,0,0,0,0,0,0,0,0,0,0,0,0,0,0.0211,0.0211,0.0212,0.0212,0.0212,0.019,0.019,0.019,0.0158,0.0157,0.0156,0.0156,0.0156,0.0156,0.0157,0,0,0,0,0,0,0,0,0,0,0,0,0,0.0202,0.0211,0.0212,0.0194,0.0192,0.019,0.019,0.019,0.0158,0.0157,0.0156,0.0155,0.0155,0.0156,0.0157,0.0177,0,0,0.0159,0.0159,0,0,0,0,0,0,0,0,0.0203,0.0202,0.0197,0.0195,0.0193,0.0176,0.0189,0.0187,0.0158,0.017,0.0156,0.0155,0.0166,0.0165,0.0162,0.0177,0.0177,0.0159,0.016,0.016,0.016,0,0,0,0,0,0,0,0.0204,0.0203,0.0203,0.0196,0.0194,0.0181,0.0179,0.0189,0.0173,0.0169,0.0167,0.0165,0.0164,0.0161,0.0162,0.0177,0.0159,0.016,0.016,0.0161,0.0171,0.0171,0,0,0,0,0,0,0.0209,0.0204,0.0204,0.0203,0.0196,0.0182,0.0179,0.0182,0.0172,0.017,0.0166,0.0164,0.0161,0.0161,0.0162,0.017,0.016,0.0161,0.0161,0.0171,0.0171,0.0171,0,0,0,0,0,0,0.0209,0.0209,0.0205,0.0203,0.0201,0.0183,0.0186,0.0182,0.0179,0.0169,0.0167,0.0167,0.016,0.0161,0.0163,0.017,0.0161,0.0162,0.0171,0.0171,0.0171,0.0197,0,0,0,0,0,0,0.0209,0.021,0.0218,0.0203,0.0201,0.0208,0.0186,0.0182,0.018,0.0177,0.017,0.0169,0.0159,0.0161,0.0163,0.0171,0.0162,0.0172,0.0171,0.0171,0.0196,0.0197,0.0198,0,0,0,0,0,0.0209,0.0226,0.0218,0.0218,0.0212,0.0209,0.0207,0.019,0.0181,0.0184,0.0171,0.0169,0.016,0.0162,0.0164,0.0173,0.0172,0.0171,0.0171,0.0195,0.0197,0.0198,0,0,0,0,0,0,0.0234,0.0223,0.0215,0.0228,0.022,0.0204,0.0209,0.0197,0.019,0.0187,0.0174,0.0172,0.0173,0.017,0.0172,0.0172,0.0164,0.0164,0.0182,0.0183,0.0184,0.0183,0.0163,0,0,0,0,0,0.0243,0.0249,0.0235,0.0247,0.0244,0.0228,0.0226,0.0214,0.0204,0.02,0.0197,0.0187,0.0175,0.0176,0.017,0.0181,0.015,0.0184,0.0185,0.0186,0.0184,0.0127,0.0122,0.017,0.017,0.017,0,0,0.0256,0.0251,0.0255,0.0252,0.0244,0.0247,0.0225,0.0225,0.0228,0.0203,0.0213,0.0196,0.0177,0.0177,0.0178,0.0176,0.0159,0.0186,0.0187,0.0184,0.0126,0.0121,0.0117,0.0169,0.0169,0.017,0,0,0.0281,0.0281,0.029,0.0287,0.0278,0.0268,0.027,0.0259,0.0254,0.0259,0.0232,0.0214,0.022,0.0195,0.0184,0.019,0.0165,0.0194,0.0205,0.0149,0.0144,0.014,0.0106,0.0099,0.0197,0.0197,0.0197,0,0.0296,0.0306,0.0293,0.03,0.0303,0.0279,0.029,0.0283,0.0275,0.0267,0.0267,0.0234,0.0223,0.0196,0.0195,0.0194,0.0163,0.0203,0.015,0.0145,0.014,0.0106,0.0098,0.0198,0.0198,0.0198,0.0198,0,0.0322,0.0333,0.034,0.0339,0.034,0.0348,0.0335,0.0333,0.0326,0.031,0.0291,0.0265,0.0239,0.0234,0.022,0.0181,0.0172,0.0156,0.0147,0.0137,0.0102,0.0093,0.02,0.02,0.0199,0.0199,0,0,0.0347,0.0356,0.0359,0.0367,0.0363,0.0366,0.0368,0.0356,0.0349,0.0335,0.032,0.0291,0.0264,0.0249,0.0223,0.0179,0.0125,0.0159,0.0155,0.0127,0.0012,0.0024,0.0014,0.0095,0.0094,0.0092,0.0006,0,0.037,0.0392,0.0391,0.0415,0.0425,0.0409,0.041,0.0394,0.0381,0.0362,0.0314,0.0299,0.0274,0.0264,0.021,0.0142,0.0098,0.015,0.0024,0.0021,0.0033,0.0003,0.0087,-0.0001,-0.0004,-0.0005,-0.0006,0,0.0391,0.0404,0.0433,0.0444,0.0447,0.0463,0.0454,0.0453,0.0411,0.0397,0.0357,0.0322,0.0259,0.0245,0.0114,0.0147,0.0083,0.0031,0.0026,0.002,0.0014,0.0007,-0.0024,-0.0023,-0.0022,-0.002,-0.0019,0,0.0407,0.0432,0.0457,0.0465,0.0473,0.0487,0.0492,0.0466,0.047,0.0426,0.0415,0.0328,0.0297,0.019,0.0088,0.0096,-0.0058,-0.0063,-0.0112,-0.0111,-0.0106,-0.0101,-0.0159,-0.0158,-0.0158,-0.0158,-0.0158,0,0.0427,0.0448,0.0473,0.0491,0.052,0.0517,0.054,0.0527,0.0512,0.0508,0.044,0.0413,0.028,0.0182,0.0081,-0.0047,-0.007,-0.0119,-0.0141,-0.0091,-0.0083,-0.0112,-0.0106,-0.0161,-0.016,-0.016,-0.0159,0,0.0439,0.0452,0.0486,0.0517,0.0533,0.0556,0.0597,0.0603,0.0583,0.0576,0.0569,0.0472,0.0341,0.0204,0.0034,-0.0041,-0.017,-0.0206,-0.0133,-0.0148,-0.0181,-0.0172,-0.0272,-0.0273,-0.0273,-0.0273,-0.0274,0,0.0444,0.0464,0.0517,0.0546,0.0572,0.0612,0.0634,0.0642,0.0653,0.0609,0.06,0.0492,0.0409,0.0172,0.0028,-0.0171,-0.019,-0.0249,-0.0224,-0.0185,-0.0197,-0.0187,-0.0178,-0.0274,-0.0274,-0.0275,-0.0275,0,0.0458,0.0481,0.051,0.0573,0.0619,0.0658,0.0699,0.0715,0.0707,0.0695,0.0624,0.0508,0.0359,0.0179,0.0027,-0.0114,-0.0212,-0.0253,-0.0253,-0.0231,-0.0189,-0.0198,-0.0188,-0.0276,-0.0276,-0.0276,-0.0276,0,0.047,0.0493,0.0538,0.0589,0.0642,0.0682,0.0708,0.0715,0.0722,0.0684,0.066,0.05,0.0416,0.0207,0.006,-0.0074,-0.0101,-0.0132,-0.0138,-0.0138,-0.0072,0.0002,-0.0054,0,0,0,0,0,0.0478,0.0503,0.0552,0.0602,0.0653,0.0687,0.0731,0.0746,0.0748,0.0708,0.069,0.0553,0.0339,0.0237,0.0104,0.005,-0.0128,-0.0109,-0.0168,-0.0284,-0.0282,-0.0226,0,0,0,0,0,0,0.0481,0.0525,0.0545,0.0595,0.0636,0.069,0.0721,0.0729,0.0704,0.0691,0.0573,0.053,0.0313,0.0414,0.0103,0.0062,0.001,-0.0208,-0.0211,-0.0285,-0.0283,-0.0282,-0.0224,0,0,0,0,0]}]]